Latest Weather Observations for Truscott

IDD60801

Issued at 8:05 pm CST Tuesday 29 July 2014 (issued every 30 minutes, with the page automatically refreshed every 10 minutes)

About weather observations | Map of weather stations | Latest weather observations for NT | Other Formats
Station Details ID: 001020 Name: TRUSCOTT Lat: -14.09 Lon: 126.39 Height: 51.0 m
Data from the previous 72 hours. | See also: Recent months at Truscott
Date/Time
CST
Temp
°C
App
Temp
°C
Dew
Point
Rel
Hum
%
Delta-T
°C
Wind Press
QNH
hPa
Press
MSL
hPa
Rain
since 9 am
mm
Dir
 
Spd
km/h
Gust
km/h
Spd
kts
Gust
kts
29/08:00pm 26.1 25.2 14.9 50 6.7 NE 13 20 7 11 1014.7 - 0.0
29/07:30pm 26.5 25.2 14.9 49 7.0 NE 15 24 8 13 1014.3 1013.9 0.0
29/07:00pm 27.0 25.7 14.7 47 7.4 NE 15 26 8 14 1014.0 - 0.0
29/06:30pm 27.8 26.1 14.8 45 7.9 NE 17 26 9 14 1013.5 - 0.0
29/06:00pm 28.6 26.9 14.8 43 8.4 NE 17 32 9 17 1013.1 - 0.0
29/05:30pm 29.4 27.1 14.0 39 9.3 NE 19 33 10 18 1012.8 - 0.0
29/05:00pm 30.2 27.8 13.9 37 9.8 NE 19 28 10 15 1012.6 - 0.0
29/04:30pm 30.8 28.3 14.0 36 10.2 ENE 20 32 11 17 1012.7 1012.3 0.0
29/04:00pm 31.8 29.2 13.1 32 11.2 NE 19 30 10 16 1012.6 - 0.0
29/03:30pm 32.0 30.0 12.8 31 11.5 ENE 15 24 8 13 1012.8 - 0.0
29/03:00pm 31.8 28.8 12.1 30 11.6 NE 19 24 10 13 1013.1 - 0.0
29/02:30pm 31.8 29.1 11.6 29 11.8 ENE 17 26 9 14 1013.5 - 0.0
29/02:00pm 32.0 29.9 11.2 28 12.1 E 13 24 7 13 1014.0 - 0.0
29/01:30pm 31.5 28.3 11.3 29 11.8 E 19 28 10 15 1014.4 1014.0 0.0
29/01:00pm 31.4 28.7 11.7 29 11.5 ENE 17 26 9 14 1014.9 - 0.0
29/12:30pm 30.9 28.6 11.8 31 11.2 E 15 26 8 14 1015.4 - 0.0
29/12:00pm 30.2 27.4 11.2 31 11.0 E 17 30 9 16 1015.9 - 0.0
29/11:30am 29.6 26.2 10.7 31 10.8 E 19 30 10 16 1016.3 - 0.0
29/11:00am 29.4 26.0 10.5 31 10.8 E 19 32 10 17 1016.5 - 0.0
29/10:30am 29.2 26.2 10.8 32 10.5 ESE 17 35 9 19 1016.5 1016.2 0.0
29/10:00am 28.1 25.6 11.2 35 9.7 E 15 24 8 13 1016.6 - 0.0
29/09:30am 27.0 25.3 12.3 40 8.5 ESE 13 20 7 11 1016.4 - 0.0
29/09:00am 25.7 24.6 13.2 46 7.3 ESE 11 17 6 9 1016.1 - 0.0
29/08:30am 23.9 23.9 14.3 55 5.7 SSE 7 9 4 5 1015.8 - 0.0
29/08:00am 21.9 22.3 15.3 66 3.9 SSE 7 9 4 5 1015.6 - 0.0
29/07:30am 20.8 23.3 17.2 80 2.2 SW 0 0 0 0 1015.3 1015.0 0.0
29/07:00am 20.9 22.2 17.1 79 2.3 SSW 6 9 3 5 1015.2 - 0.0
29/06:30am 21.8 23.5 17.2 75 2.8 WSW 4 7 2 4 1015.0 - 0.0
29/06:00am 22.1 22.6 17.5 75 2.8 SW 11 13 6 7 1014.8 - 0.0
29/05:30am 22.1 22.4 17.0 73 3.1 SSW 11 13 6 7 1014.6 - 0.0
29/05:00am 22.3 22.7 17.2 73 3.1 SSW 11 15 6 8 1014.5 - 0.0
29/04:30am 22.3 22.3 17.2 73 3.1 SSW 13 17 7 9 1014.4 1014.0 0.0
29/04:00am 22.3 22.7 17.2 73 3.1 SSW 11 13 6 7 1014.3 - 0.0
29/03:30am 22.2 22.5 17.1 73 3.1 SSW 11 15 6 8 1014.2 - 0.0
29/03:00am 22.3 23.1 17.2 73 3.1 SSW 9 13 5 7 1014.4 - 0.0
29/02:30am 21.0 22.3 17.2 79 2.3 S 6 7 3 4 1014.8 - 0.0
29/02:00am 21.2 22.6 17.8 81 2.1 SSW 7 9 4 5 1015.0 - 0.0
29/01:30am 20.9 22.4 18.1 84 1.7 S 7 9 4 5 1015.1 1014.8 0.0
29/01:00am 20.3 23.3 18.4 89 1.2 CALM 0 0 0 0 1015.1 - 0.0
29/12:30am 20.8 23.7 18.2 85 1.6 CALM 0 0 0 0 1015.3 - 0.0
29/12:00am 21.2 24.0 18.0 82 2.0 CALM 0 0 0 0 1015.4 - 0.0
 
Date/Time
CST
Temp
°C
App
Temp
°C
Dew
Point
Rel
Hum
%
Delta-T
°C
Wind Press
QNH
hPa
Press
MSL
hPa
Rain
since 9 am
mm
Dir
 
Spd
km/h
Gust
km/h
Spd
kts
Gust
kts
28/11:30pm 21.4 24.2 18.0 81 2.1 CALM 0 0 0 0 1015.6 - 0.0
28/11:00pm 21.6 23.5 17.6 78 2.5 ENE 4 6 2 3 1015.7 - 0.0
28/10:30pm 22.1 23.6 17.5 75 2.8 E 6 6 3 3 1015.7 1015.4 0.0
28/10:00pm 22.8 24.3 17.5 72 3.3 ENE 6 7 3 4 1015.8 - 0.0
28/09:30pm 23.6 24.8 17.3 67 3.9 NE 7 7 4 4 1015.7 - 0.0
28/09:00pm 24.4 25.9 17.6 66 4.2 ENE 6 7 3 4 1015.4 - 0.0
28/08:30pm 24.7 26.8 18.9 70 3.7 NE 6 7 3 4 1015.2 - 0.0
28/08:00pm 24.9 27.6 20.2 75 3.1 NNE 6 9 3 5 1014.8 - 0.0
28/07:30pm 25.1 27.1 19.9 73 3.4 N 9 13 5 7 1014.5 1014.1 0.0
28/07:00pm 25.4 27.0 19.1 68 4.0 N 9 13 5 7 1014.2 - 0.0
28/06:30pm 26.4 27.4 17.7 58 5.5 N 9 17 5 9 1013.7 - 0.0
28/06:00pm 27.6 27.7 17.5 54 6.4 N 13 17 7 9 1013.4 - 0.0
28/05:30pm 28.1 28.5 17.3 52 6.8 N 11 17 6 9 1013.2 - 0.0
28/05:00pm 29.0 29.3 16.9 48 7.6 N 11 19 6 10 1012.9 - 0.0
28/04:30pm 28.8 29.1 18.0 52 6.9 N 13 17 7 9 1012.8 1012.4 0.0
28/04:00pm 29.0 29.0 18.1 51 7.0 N 15 20 8 11 1013.0 - 0.0
28/03:30pm 29.4 29.4 18.2 51 7.2 NNE 15 22 8 12 1013.2 - 0.0
28/03:00pm 30.5 29.3 15.0 39 9.5 ENE 15 20 8 11 1013.5 - 0.0
28/02:30pm 31.0 30.7 15.4 38 9.7 E 11 19 6 10 1014.1 - 0.0
28/02:00pm 29.9 28.8 14.4 38 9.4 E 13 20 7 11 1014.6 - 0.0
28/01:30pm 29.6 28.0 13.8 38 9.5 E 15 22 8 12 1015.1 1014.8 0.0
28/01:00pm 29.7 28.5 13.9 38 9.5 ENE 13 22 7 12 1015.5 - 0.0
28/12:30pm 29.2 28.2 13.4 38 9.4 E 11 20 6 11 1015.9 - 0.0
28/12:00pm 28.3 26.5 13.4 40 8.8 ENE 15 20 8 11 1016.3 - 0.0
28/11:30am 27.9 27.3 13.4 40 8.6 E 9 15 5 8 1016.8 - 0.0
28/11:00am 28.5 29.3 16.4 48 7.5 E 7 13 4 7 1017.0 - 0.0
28/10:30am 26.8 28.9 18.9 62 5.1 NNE 6 11 3 6 1017.3 1017.0 0.0
28/10:00am 24.9 29.1 21.0 79 2.6 CALM 0 0 0 0 1017.3 - 0.0
28/09:30am 23.1 27.4 21.2 89 1.2 CALM 0 0 0 0 1017.0 - 0.0
28/09:00am 22.8 26.2 20.1 85 1.7 SW 2 6 1 3 1016.8 - 0.0
28/08:30am 22.6 25.2 20.5 88 1.4 S 7 11 4 6 1016.3 - 0.0
28/08:00am 22.4 25.1 21.4 94 0.7 SSW 9 11 5 6 1016.0 - 0.0
28/07:30am 21.4 24.0 20.4 94 0.6 SW 7 9 4 5 1015.7 1015.4 0.0
28/07:00am 21.5 24.2 20.3 93 0.8 WSW 6 7 3 4 1015.4 - 0.0
28/06:30am 20.8 23.3 20.3 97 0.3 W 7 9 4 5 1015.3 - 0.0
28/06:00am 20.2 23.5 19.9 98 0.2 SSW 2 6 1 3 1014.9 - 0.0
28/05:30am 20.2 23.9 19.9 98 0.2 CALM 0 6 0 3 1014.7 - 0.0
28/05:00am 21.2 23.5 19.8 92 0.9 SSW 7 9 4 5 1014.4 - 0.0
28/04:30am 21.3 23.7 20.1 93 0.8 SW 7 11 4 6 1014.3 1013.9 0.0
28/04:00am 21.5 23.6 20.1 92 0.9 SW 9 11 5 6 1014.4 - 0.0
28/03:30am 21.8 24.5 20.6 93 0.8 SSW 7 11 4 6 1014.4 - 0.0
28/03:00am 21.3 24.3 20.8 97 0.3 SSW 6 9 3 5 1014.7 - 0.0
28/02:30am 21.8 24.0 21.1 96 0.5 SSW 11 13 6 7 1014.9 - 0.0
28/02:00am 21.5 24.7 21.2 98 0.2 SSW 6 9 3 5 1015.2 - 0.0
28/01:30am 21.7 24.9 21.7 100 0.0 SSW 7 9 4 5 1015.4 1015.1 0.0
28/01:00am 21.3 25.5 21.0 98 0.2 CALM 0 0 0 0 1015.7 - 0.0
28/12:30am 21.4 24.9 21.1 98 0.2 SW 4 7 2 4 1015.8 - 0.0
28/12:00am 20.8 23.8 20.1 96 0.4 NNE 4 7 2 4 1016.2 - 0.0
 
Date/Time
CST
Temp
°C
App
Temp
°C
Dew
Point
Rel
Hum
%
Delta-T
°C
Wind Press
QNH
hPa
Press
MSL
hPa
Rain
since 9 am
mm
Dir
 
Spd
km/h
Gust
km/h
Spd
kts
Gust
kts
27/11:30pm 21.2 25.2 20.5 96 0.5 CALM 0 0 0 0 1016.3 - 0.0
27/11:00pm 21.1 25.0 20.3 95 0.5 CALM 0 0 0 0 1016.5 - 0.0
27/10:30pm 21.3 25.2 20.3 94 0.6 CALM 0 0 0 0 1016.6 1016.3 0.0
27/10:00pm 21.8 25.9 20.8 94 0.7 CALM 0 0 0 0 1016.4 - 0.0
27/09:30pm 22.6 26.9 21.2 92 0.9 CALM 0 0 0 0 1016.2 - 0.0
27/09:00pm 23.0 27.4 21.3 90 1.1 CALM 0 0 0 0 1016.2 - 0.0
27/08:30pm 23.5 27.2 21.4 88 1.4 N 4 7 2 4 1015.8 - 0.0
27/08:00pm 23.9 27.3 21.6 87 1.5 N 6 7 3 4 1015.5 - 0.0
27/07:30pm 24.5 28.1 21.2 82 2.2 N 4 7 2 4 1015.3 1015.0 0.0
27/07:00pm 25.2 27.5 20.7 76 3.0 N 9 15 5 8 1014.9 - 0.0
27/06:30pm 25.9 28.1 20.5 72 3.5 N 9 13 5 7 1014.6 - 0.0
27/06:00pm 26.6 27.9 20.2 68 4.2 N 13 17 7 9 1014.4 - 0.0
27/05:30pm 27.6 28.9 20.2 64 4.9 NNE 13 24 7 13 1014.1 - 0.0
27/05:00pm 28.1 28.5 19.1 58 5.8 N 15 24 8 13 1013.7 - 0.0
27/04:30pm 28.8 28.9 18.3 53 6.7 NNE 15 20 8 11 1013.6 1013.2 0.0
27/04:00pm 29.3 28.5 18.4 51 7.0 NNE 20 30 11 16 1013.7 - 0.0
27/03:30pm 28.9 28.8 18.7 54 6.6 NNE 17 26 9 14 1013.9 - 0.0
27/03:00pm 29.8 29.9 19.2 53 6.9 NNE 17 30 9 16 1014.0 - 0.0
27/02:30pm 30.0 28.7 16.8 45 8.3 ENE 19 30 10 16 1014.4 - 0.0
27/02:00pm 30.0 28.7 16.8 45 8.3 NE 19 26 10 14 1014.9 - 0.0
27/01:30pm 30.2 29.0 16.2 42 8.7 NE 17 26 9 14 1015.4 1015.1 0.0
27/01:00pm 30.2 28.6 15.1 40 9.3 ENE 17 26 9 14 1016.0 - 0.0
27/12:30pm 29.7 27.6 13.5 37 9.7 ENE 17 28 9 15 1016.6 - 0.0
27/12:00pm 29.0 26.8 13.2 37 9.4 E 17 24 9 13 1016.9 - 0.0
27/11:30am 28.6 26.8 13.3 39 9.1 E 15 26 8 14 1017.1 - 0.0
27/11:00am 28.2 24.4 11.3 35 9.7 E 22 30 12 16 1017.2 - 0.0
27/10:30am 27.7 25.4 11.7 37 9.2 ESE 15 22 8 12 1017.3 1017.0 0.0
27/10:00am 26.7 24.7 11.6 39 8.6 ESE 13 24 7 13 1017.3 - 0.0
27/09:30am 26.1 25.7 14.2 48 7.1 SE 9 15 5 8 1017.1 - 0.0
27/09:00am 23.3 23.3 13.5 54 5.7 SE 6 9 3 5 1016.9 - 0.0
27/08:30am 22.0 22.7 15.6 67 3.8 S 6 9 3 5 1016.6 - 0.0
27/08:00am 20.4 22.5 16.2 77 2.5 CALM 0 0 0 0 1016.4 - 0.0
27/07:30am 20.6 20.8 14.7 69 3.5 S 7 11 4 6 1016.0 1015.7 0.0
27/07:00am 21.0 21.8 16.4 75 2.8 SSW 7 9 4 5 1015.9 - 0.0
27/06:30am 21.4 22.7 17.2 77 2.6 SSW 6 7 3 4 1015.8 - 0.0
27/06:00am 21.8 23.0 17.4 76 2.7 SW 7 9 4 5 1015.6 - 0.0
27/05:30am 22.0 23.3 17.6 76 2.7 SW 7 13 4 7 1015.5 - 0.0
27/05:00am 22.1 23.2 17.9 77 2.6 SW 9 11 5 6 1015.2 - 0.0
27/04:30am 22.1 23.2 18.1 78 2.5 SW 9 13 5 7 1015.3 1015.0 0.0
27/04:00am 21.8 22.4 17.6 77 2.6 SW 11 17 6 9 1015.3 - 0.0
27/03:30am 22.2 22.4 17.6 75 2.9 SW 13 19 7 10 1015.6 - 0.0
27/03:00am 22.5 22.2 16.5 69 3.7 SW 13 15 7 8 1016.0 - 0.0
27/02:30am 22.7 22.7 16.3 67 3.9 SSW 11 13 6 7 1016.3 - 0.0
27/02:00am 22.0 22.3 15.1 65 4.1 S 7 9 4 5 1016.7 - 0.0
27/01:30am 21.6 22.4 16.3 72 3.2 S 7 9 4 5 1016.8 1016.5 0.0
27/01:00am 21.6 22.8 17.4 77 2.6 S 7 11 4 6 1017.0 - 0.0
27/12:30am 21.1 22.5 17.7 81 2.1 SSE 7 9 4 5 1017.2 - 0.0
27/12:00am 21.6 22.9 18.4 82 2.0 S 9 13 5 7 1017.2 - 0.0
 
Date/Time
CST
Temp
°C
App
Temp
°C
Dew
Point
Rel
Hum
%
Delta-T
°C
Wind Press
QNH
hPa
Press
MSL
hPa
Rain
since 9 am
mm
Dir
 
Spd
km/h
Gust
km/h
Spd
kts
Gust
kts
26/11:30pm 21.4 22.9 17.6 79 2.3 SE 6 7 3 4 1017.1 - 0.0
26/11:00pm 22.0 23.2 17.4 75 2.8 ESE 7 9 4 5 1017.2 - 0.0
26/10:30pm 21.5 22.2 16.0 71 3.3 E 7 9 4 5 1017.3 1017.0 0.0
26/10:00pm 22.8 23.3 15.6 64 4.3 ENE 7 9 4 5 1017.2 - 0.0

Other Formats:

Comma delimited format used in spreadsheet applications
http://www.bom.gov.au/fwo/IDD60801/IDD60801.95101.axf

JavaScript Object Notation format (JSON) in row-major order
http://www.bom.gov.au/fwo/IDD60801/IDD60801.95101.json